Location: Sternwarte Hubelmatt
(47.0367°N, 8.3053°E)
Time: 06:17:04
(UTC+02:00)

Max Valier Satellite - Visible Passes

Search period start: 16 April 2024 00:00
Search period end: 26 April 2024 00:00
Orbit: 364 x 372 km, 97.1° (Epoch: 15 April)

Date Brightness Start Highest point End Pass type
(mag) Time Alt. Az. Time Alt. Az. Time Alt. Az.
16 Apr ? 21:36:16 10° SW 21:38:25 19° W 21:40:34 10° NW visible
18 Apr ? 21:06:05 10° S 21:08:54 48° W 21:11:44 10° NNW visible
19 Apr ? 21:37:25 10° SW 21:39:32 18° W 21:41:39 10° NW visible
21 Apr ? 21:05:54 10° S 21:08:43 49° W 21:11:33 10° NNW visible
22 Apr ? 21:36:31 10° SW 21:38:40 19° W 21:40:50 10° NW visible
24 Apr ? 21:03:43 10° S 21:06:33 54° W 21:09:25 10° NNW visible
25 Apr ? 21:33:34 10° SSW 21:35:50 21° W 21:38:07 10° NW visible
